Regional Weather Roundup
Issued by NWS

Home | Current Version | Previous Version | Text Only | Print | Product List | Glossary On
Versions: 1 2 3 4 5 6 7 8 9 10 11 12 13 14 15 16 17 18 19 20 21 22 23 24 25 26 27 28 29 30 31 32 33 34 35 36 37 38 39 40 41 42 43 44 45 46 47 48 49 50
000
ASUS44 KBMX 282110
RWRAL

ALABAMA REGIONAL WEATHER ROUNDUP
NATIONAL WEATHER SERVICE BIRMINGHAM AL
400 PM CDT MON JUL 28 2014

NOTE: "FAIR" INDICATES FEW OR NO CLOUDS BELOW 12,000 FEET
WITH NO SIGNIFICANT WEATHER AND/OR OBSTRUCTIONS TO VISIBILITY.

THE REMARK "TC" DENOTES TEMPERATURE IN DEGREES CELSIUS.

ALZ001>011-014-016>018-020-282200-
NORTH ALABAMA

CITY           SKY/WX    TMP DP  RH WIND       PRES   REMARKS
MUSCLE SHOALS  MOSUNNY   86  60  41 NW10G20   30.01S
HUNTSVILLE     MOSUNNY   85  62  46 N10       29.98F
DECATUR        MOSUNNY   84  62  47 NW14      29.99F
HALEYVILLE     FAIR      83  64  52 N9G18     30.04S
GADSDEN        SUNNY     88  61  40 N13G20    29.94F
$$

ALZ012-013-022-023-030>036-040>044-282200-
WEST CENTRAL ALABAMA

CITY           SKY/WX    TMP DP  RH WIND       PRES   REMARKS
TUSCALOOSA     SUNNY     92  62  36 NW16G22   29.95S HX  92
$$

ALZ015-024>027-033>036-040>044-282200-
CENTRAL ALABAMA

CITY           SKY/WX    TMP DP  RH WIND       PRES   REMARKS
BIRMINGHAM     MOSUNNY   91  58  32 N12G21    29.96F HX  90
MONTGOMERY     SUNNY     96  72  45 W14G20    29.90F HX 104
SHELBY CO ARPT SUNNY     92  59  33 NW9G21    29.93F HX  91
MAXWELL AFB    MOSUNNY   93  73  52 VRB3      29.90F HX 102
GREENVILLE     FAIR      78  70  76 SW12      29.95R THUNDER
$$

ALZ019-021-028-029-037-038-045>048-282200-
EAST CENTRAL ALABAMA

CITY           SKY/WX    TMP DP  RH WIND       PRES   REMARKS
ANNISTON       SUNNY     91  59  33 NW15G23   29.92F HX  90
ALEXANDER CITY SUNNY     96  62  31 NW6       29.92S HAZE    HX  96
AUBURN         PTSUNNY   88  70  55 NW13      29.95S HX  92
$$

ALZ051>064-282200-
SOUTHWEST ALABAMA

CITY           SKY/WX    TMP DP  RH WIND       PRES   REMARKS
MOBILE         MOSUNNY   93  75  55 W12G18    29.97F HX 104
BROOKLEY FIELD MOSUNNY   95  76  53 W8        29.96F HX 108
EVERGREEN      TSTM      75  72  90 NE9G20    29.98R
$$

ALZ049-050-065>069-282200-
SOUTHEAST ALABAMA

CITY           SKY/WX    TMP DP  RH WIND       PRES   REMARKS
DOTHAN         PTSUNNY   90  74  59 W9        29.94F HX  99
OZARK          MOSUNNY   94  76  54 SW13      29.91F HX 106
TROY           MOSUNNY   92  75  57 W9        29.93R HX 103
EUFAULA        FAIR      83  70  64 SW6       29.91F THUNDER
$$


USA.gov is the U.S. government's official web portal to all federal, state and local government web resources and services.